Location: Memphis
(29.8667°N, 31.2500°E)
Time: 09:16:44
(UTC+00:00)

Cosmos 1707 Rocket - Pass Details

Date: 03 March 2021
Orbit: 604 x 632 km, 82.5° (Epoch: 15 April)

Event Time Altitude Azimuth Distance (km) Brightness Sun altitude
Rises 16:24:34 0° 354° (N) 2,885 7.0 -7.1°
Reaches altitude 10° 16:26:48 10° 354° (N) 1,972 6.2 -7.6°
Maximum altitude 16:31:10 89° 94° (E) 613 3.5 -8.5°
Drops below altitude 10° 16:35:29 10° 175° (S) 1,946 6.1 -9.4°
Sets 16:37:40 0° 175° (S) 2,844 6.9 -9.9°
